Theta_e
306 304 307 305 304 293 296 299 295 297 300 299 296 298 300 299 295 291 296 301 300 304 309 314 316 316 317 319 321 322 322 323 325 325 326 327 328 328 329 329 330 331 333 334 335 337 339 340 341 343 344 345 347 349 349 349 350 352 353 353 352 352 352
307 310 307 307 307 302 296 296 296 302 303 301 296 288 292 291 287 289 297 295 295 300 296 308 311 314 315 316 319 321 322 323 323 325 326 327 328 329 330 331 331 332 333 334 335 337 339 340 341 343 344 346 348 349 350 349 350 350 353 354 353 353 352
306 309 308 305 307 307 301 296 301 299 291 292 293 293 288 287 287 288 292 295 296 297 297 305 308 310 313 314 317 319 320 322 323 324 326 327 328 329 330 330 331 332 333 334 335 336 340 341 342 344 345 346 347 349 351 351 350 351 353 355 355 355 354
305 306 304 297 300 305 307 303 299 300 296 295 292 293 291 292 287 290 289 293 291 301 299 306 309 311 313 314 315 317 319 321 323 324 326 326 327 328 330 331 331 333 333 335 336 336 339 340 341 344 345 346 347 348 350 351 352 352 353 354 355 354 354
303 298 300 299 301 299 300 300 299 299 299 298 297 297 294 291 287 285 287 289 293 298 306 309 310 312 313 314 314 316 319 322 323 324 326 326 327 328 329 331 332 333 334 335 337 337 339 342 343 344 345 346 347 348 349 351 351 351 352 353 354 355 355
296 298 303 303 303 304 302 301 299 300 295 293 290 288 297 295 292 286 288 288 291 301 310 311 311 313 314 315 315 316 319 321 323 324 326 327 327 328 329 331 332 333 335 336 337 338 339 341 342 343 345 346 347 348 349 351 352 352 352 353 354 355 355
297 300 304 307 307 306 305 303 301 301 296 294 290 286 287 295 294 299 293 290 294 303 308 311 312 313 315 316 316 316 319 322 324 325 327 327 328 329 330 331 332 334 335 336 337 338 339 341 342 343 344 345 347 348 349 351 351 352 353 354 355 355 355
301 303 304 305 307 306 303 303 304 301 297 296 293 290 291 292 292 293 291 292 290 302 309 312 311 313 315 316 316 317 319 323 324 325 326 327 328 329 330 331 333 334 335 337 337 337 339 340 342 342 344 345 347 348 350 351 351 352 354 355 356 355 355
293 298 299 299 303 304 302 300 302 303 301 299 297 297 297 294 292 293 290 289 290 302 311 311 316 316 316 315 314 316 317 322 324 325 326 327 328 329 329 330 331 332 333 335 337 338 339 341 342 343 344 345 346 347 350 351 352 354 355 356 356 356 355
287 287 289 292 295 298 299 301 301 302 302 299 295 294 293 287 293 295 291 291 293 300 306 309 309 307 313 315 315 317 319 321 324 324 325 327 327 328 328 329 328 329 333 335 337 338 339 341 342 343 344 345 346 347 349 352 353 354 355 357 357 356 356
293 294 295 299 301 299 298 298 300 301 302 302 300 295 291 291 290 294 291 296 297 300 303 304 306 307 308 313 315 315 316 317 322 324 326 326 326 327 327 328 328 329 332 334 336 338 339 340 342 344 344 344 345 346 347 351 353 355 356 356 357 357 356
299 299 299 302 303 299 300 299 298 301 301 301 298 295 294 295 293 291 295 299 299 300 302 303 306 308 306 312 314 315 316 317 319 322 324 332 325 326 327 327 327 328 332 334 335 337 339 340 342 343 344 345 345 345 346 349 352 354 356 356 357 357 356
301 301 302 302 302 300 301 301 299 299 300 300 298 297 296 297 294 293 296 298 299 300 302 304 305 307 310 311 315 318 318 318 318 320 322 324 324 325 325 326 327 329 331 333 334 336 338 339 340 341 343 344 345 345 346 348 350 352 355 356 356 357 356
300 301 302 303 302 301 300 301 301 300 300 300 300 299 298 298 297 297 298 300 302 303 304 305 307 309 312 313 314 317 318 319 322 323 322 323 324 324 325 326 327 330 332 333 334 336 337 338 339 340 342 343 344 344 345 347 348 351 354 354 355 356 356
298 300 302 303 302 301 299 299 301 301 300 300 301 300 299 299 298 299 297 298 300 303 306 307 307 312 317 312 314 316 317 323 324 323 323 323 323 324 326 327 327 329 332 333 334 335 336 338 338 339 341 343 344 345 345 346 347 349 352 353 354 355 356
296 300 300 301 302 301 299 299 299 299 300 298 300 299 300 298 297 297 297 296 296 300 303 307 309 313 312 311 312 314 316 324 324 321 322 324 324 325 326 326 327 329 331 333 334 335 336 338 339 339 340 342 344 344 345 345 346 348 350 352 353 354 355
294 299 301 300 300 298 295 297 300 300 299 300 301 303 304 304 302 298 296 295 298 303 306 306 306 311 309 310 313 314 317 324 325 323 324 324 325 326 327 327 328 330 331 333 335 337 338 340 340 341 341 342 343 344 345 346 347 347 348 350 352 353 355
293 299 299 300 296 290 292 301 304 303 301 301 300 298 300 302 302 299 301 302 301 302 303 305 305 305 307 310 312 315 319 323 326 326 326 326 327 328 328 330 330 331 333 334 336 338 340 342 342 343 343 342 344 345 346 347 346 346 346 348 350 352 354
295 298 300 295 290 291 302 303 305 306 304 304 302 312 314 316 311 308 306 308 306 305 304 306 306 311 312 320 320 322 321 318 324 329 330 329 327 328 330 330 331 332 333 334 335 336 339 343 344 344 343 344 344 345 346 346 346 346 346 347 349 351 353
296 296 295 290 288 299 308 307 308 308 306 306 314 312 315 318 317 310 310 313 313 313 310 309 311 313 319 324 325 325 326 324 320 319 327 332 331 330 332 332 332 332 333 334 335 337 341 344 346 345 344 345 345 345 346 346 347 347 346 346 348 350 352
293 293 293 293 301 303 302 305 308 306 302 303 308 306 310 317 318 315 313 315 318 319 318 318 315 315 320 322 324 328 329 330 329 322 322 317 321 325 326 331 336 338 337 335 336 339 342 343 345 346 346 346 346 346 346 346 347 347 347 346 347 349 351
298 293 292 293 293 292 295 304 313 316 312 309 317 314 308 317 320 320 321 319 320 320 320 319 317 314 316 316 320 327 332 335 337 338 336 332 318 314 317 324 328 336 340 342 342 341 342 346 346 347 347 347 346 346 347 347 347 347 347 346 347 348 350
296 295 290 289 290 293 298 310 313 314 319 321 318 311 304 314 319 321 322 320 321 322 322 321 318 314 312 312 319 330 333 335 339 338 339 340 339 330 317 320 325 329 333 339 343 343 342 345 349 350 350 348 347 346 347 347 347 347 347 347 348 348 350
295 293 292 290 295 302 309 311 311 311 312 312 310 299 300 313 320 320 320 319 319 320 322 324 322 318 314 316 323 334 336 336 338 339 338 338 339 343 345 335 322 327 336 340 340 341 341 342 347 351 351 350 348 347 347 347 347 346 347 348 349 349 350
297 297 292 295 300 314 317 313 311 311 312 308 297 291 304 318 321 322 322 321 321 323 323 323 321 322 326 329 332 336 336 336 337 340 341 340 340 340 342 342 347 331 328 339 342 343 343 343 344 349 352 351 349 348 348 347 346 348 349 349 349 349 349
295 294 291 290 298 308 314 313 316 314 309 298 292 306 319 322 326 328 328 326 327 328 326 326 326 327 331 333 333 332 333 334 334 337 338 338 339 341 342 342 342 344 345 334 334 343 345 345 346 347 348 349 349 349 348 348 348 350 350 349 348 348 349
301 298 293 292 291 304 313 313 312 314 302 301 313 321 325 329 328 328 328 328 327 327 325 327 327 328 328 328 329 330 332 333 334 335 336 336 337 337 339 339 340 343 342 341 342 342 345 349 351 351 350 347 347 347 348 349 351 351 351 351 351 351 352
298 296 292 291 302 311 316 312 304 311 315 320 324 326 323 326 327 325 325 326 327 327 326 326 327 327 327 327 328 329 331 333 333 334 334 336 337 338 340 340 339 340 341 342 340 340 342 344 347 351 351 349 348 347 347 348 352 353 355 356 356 355 355
304 301 303 310 314 315 318 318 318 321 323 326 327 327 325 324 324 326 325 324 326 328 328 328 328 327 328 328 329 329 330 331 331 330 331 333 334 336 336 336 338 338 338 340 342 342 342 343 344 347 351 351 348 348 350 355 357 358 358 358 358 356 357
313 313 313 315 315 315 317 322 324 323 323 324 325 323 320 321 323 324 324 324 325 326 328 328 327 328 328 328 329 329 330 329 329 329 329 331 333 334 334 334 335 336 338 339 339 340 341 343 344 345 346 348 348 348 355 358 360 360 359 357 356 356 356
301 296 312 311 314 316 316 318 320 321 321 320 321 320 320 320 321 321 321 321 322 323 323 323 323 325 327 327 327 328 328 328 328 328 328 329 330 331 331 332 334 335 336 336 336 338 338 341 344 344 343 344 346 349 352 357 360 359 358 356 353 354 354
304 304 311 312 316 317 318 317 315 316 317 318 318 318 318 318 318 318 319 319 318 319 318 319 319 319 322 325 326 327 327 328 328 328 328 329 329 330 331 332 334 335 336 335 334 334 334 336 340 340 340 341 342 342 343 344 347 350 350 351 352 351 352
307 310 313 313 316 315 316 318 317 315 316 315 315 316 316 316 316 316 317 318 317 317 316 317 317 316 317 320 321 321 322 322 324 327 329 330 330 331 332 332 334 334 334 333 332 332 332 334 335 338 339 339 341 341 342 342 342 340 339 339 343 343 342
300 301 307 313 307 306 312 316 318 315 315 315 314 314 314 314 313 314 313 314 315 315 315 316 316 315 315 316 317 317 319 319 320 321 325 329 332 332 333 334 333 333 333 331 330 331 332 333 333 335 337 339 340 341 340 340 340 339 338 338 339 338 338
301 310 315 316 316 314 314 316 317 318 317 313 311 310 310 311 312 313 313 312 312 312 313 315 314 314 315 315 316 316 317 318 320 321 323 325 329 333 334 333 333 333 332 331 331 330 330 331 331 333 337 338 339 340 340 339 339 338 337 336 335 335 334
315 317 316 318 314 312 315 318 318 318 319 315 313 313 312 311 310 311 311 312 311 311 312 313 314 314 314 315 316 314 314 316 318 320 323 325 328 332 335 334 333 334 334 333 331 331 332 333 333 334 337 338 338 340 340 340 339 337 336 334 332 333 331
311 317 319 318 318 318 320 319 319 321 322 321 318 316 314 312 312 312 311 312 312 312 311 312 313 314 314 314 314 313 313 315 318 320 323 324 326 328 330 332 332 333 334 335 334 333 334 335 335 337 338 338 342 341 341 341 340 339 340 338 335 334 333
Wind_Speed
13 7 8 6 10 9 6 8 15 10 7 6 1 4 1 2 2 9 3 2 3 5 3 9 15 16 17 15 16 17 19 19 16 16 18 19 19 19 19 19 19 21 20 20 20 20 19 19 19 20 21 20 21 20 19 20 20 18 20 20 19 18 17
12 16 9 9 11 7 5 12 6 2 6 7 6 7 1 7 6 5 5 8 3 1 7 3 7 14 16 15 16 19 20 19 18 18 18 19 19 20 21 21 21 21 21 22 20 19 21 21 22 21 22 21 20 20 21 22 20 20 18 18 19 17 17
11 10 13 11 10 11 10 9 6 9 5 9 3 4 9 6 8 3 3 4 5 8 6 2 9 13 17 15 15 17 17 17 19 19 20 20 20 20 19 19 18 17 18 19 19 20 21 22 22 22 21 20 18 18 19 21 22 21 21 18 17 16 16
10 7 9 15 11 8 11 5 4 5 5 7 7 7 3 4 3 3 6 5 7 7 7 8 12 17 18 17 15 17 19 20 21 20 19 18 18 17 18 18 18 18 19 20 21 21 21 20 19 19 20 19 20 20 19 19 18 18 18 18 17 17 16
7 11 7 12 12 11 8 10 9 2 3 2 5 3 7 6 5 5 3 6 4 5 7 10 15 15 17 17 17 15 18 22 23 20 19 18 18 17 17 17 17 19 20 21 21 21 21 20 19 18 18 20 20 18 18 19 20 19 18 18 18 16 15
8 8 4 10 15 14 12 12 12 11 7 5 8 9 2 4 4 4 4 10 6 9 4 9 11 13 14 14 18 17 18 20 20 18 19 18 17 18 18 18 19 19 19 20 20 18 15 15 16 19 19 18 19 20 19 19 18 18 20 19 17 16 14
9 7 8 12 17 15 14 13 11 10 5 5 4 6 4 1 4 6 5 2 7 7 5 8 9 11 14 15 15 15 14 17 19 20 20 19 20 19 19 20 18 17 18 18 18 18 18 20 20 21 19 19 20 21 19 18 20 20 19 19 17 16 15
10 7 6 6 12 18 15 14 12 11 11 9 8 6 5 5 3 6 4 7 6 3 5 5 8 9 11 13 16 19 16 14 17 19 19 18 17 19 21 19 17 17 17 16 14 15 16 16 17 19 18 19 18 18 19 18 21 21 19 17 16 16 16
8 13 6 6 4 8 11 11 13 15 10 10 4 3 2 4 6 5 6 13 6 4 4 4 3 1 6 8 5 6 11 14 15 17 16 17 19 20 20 19 17 15 13 14 15 17 17 17 16 17 17 17 17 18 18 19 19 19 18 16 17 17 17
15 14 17 16 14 14 6 5 15 16 18 14 7 10 4 7 4 5 4 4 7 8 5 11 15 6 2 4 8 8 11 13 14 13 14 16 18 18 18 15 12 12 15 16 16 16 15 15 17 17 17 18 17 17 18 18 17 17 18 17 17 17 17
14 11 1 3 7 3 12 7 12 16 17 17 13 5 6 13 3 6 7 3 2 4 6 12 18 18 6 5 3 6 7 8 11 12 14 14 14 14 16 14 13 12 13 16 17 17 17 18 18 18 19 19 18 17 18 17 17 18 18 17 17 17 17
16 13 9 3 8 11 12 10 13 16 18 17 15 12 12 7 7 14 4 6 5 8 7 9 12 20 8 6 7 8 10 11 14 15 16 16 13 12 12 11 12 14 16 17 17 17 17 17 18 18 18 18 18 18 18 18 17 16 15 17 17 18 18
17 15 17 13 4 7 11 14 11 16 17 17 17 14 7 11 9 12 3 7 7 7 8 8 11 8 3 10 12 15 15 12 8 12 16 15 14 13 13 13 14 15 15 16 17 17 18 18 18 18 17 16 15 15 16 16 16 18 17 17 17 18 18
18 16 18 17 13 7 6 13 14 15 19 19 20 17 11 14 8 8 10 9 10 9 9 9 11 8 6 7 6 3 3 13 13 12 12 16 18 17 16 16 15 16 18 17 17 18 17 17 17 16 16 16 17 18 17 17 18 18 16 17 17 18 19
17 19 17 20 17 10 8 7 13 15 15 18 18 13 9 8 5 3 7 8 10 8 6 6 6 4 4 1 2 8 6 5 10 11 11 12 13 14 15 16 17 16 17 18 18 18 17 17 18 17 17 18 17 18 17 17 18 17 16 17 18 18 19
13 16 20 20 21 14 10 9 7 9 15 16 13 12 7 6 6 6 7 8 9 9 7 7 5 5 6 4 4 5 6 5 5 9 11 15 16 15 14 12 11 13 15 15 15 15 16 16 17 16 16 16 16 17 17 18 18 17 17 18 19 19 19
10 14 17 21 19 12 9 16 15 9 5 5 6 9 12 13 10 9 8 10 8 12 10 8 6 7 6 6 6 3 3 6 8 9 11 11 11 12 11 10 11 12 14 15 15 15 15 16 17 18 19 16 17 19 19 20 17 16 18 18 18 18 17
5 15 14 12 11 14 16 4 11 12 8 8 5 5 6 8 7 7 10 13 11 9 6 7 9 9 5 4 4 1 7 10 7 7 9 14 16 15 15 17 17 15 13 12 14 17 18 19 20 20 18 19 20 20 20 18 17 18 18 18 18 18 17
7 9 14 11 15 13 3 6 13 13 12 12 8 8 6 5 8 2 1 2 4 9 11 11 6 3 8 14 14 13 14 7 3 10 10 7 7 11 13 11 13 18 19 17 17 16 15 16 15 14 14 15 16 15 15 15 17 18 19 18 17 16 17
4 3 11 12 8 3 1 1 1 5 11 11 16 8 6 7 7 1 5 1 2 1 4 6 7 13 13 15 14 13 9 8 8 6 5 5 10 11 10 15 18 17 16 19 18 17 16 15 15 16 18 18 17 16 14 15 15 17 17 17 17 16 16
5 3 7 6 1 1 4 2 2 2 6 10 11 7 3 6 6 4 2 3 3 3 3 1 6 12 15 14 12 14 12 11 8 6 5 5 5 3 4 5 6 6 9 11 14 16 16 17 17 17 17 17 17 15 14 15 15 16 16 16 17 17 18
2 4 4 3 5 6 4 3 3 0 2 11 15 12 1 7 9 4 1 5 4 5 4 4 1 4 14 10 7 10 11 11 11 9 10 11 7 4 4 4 4 5 7 8 7 6 7 9 13 13 14 14 15 14 15 15 15 15 15 17 17 17 17
7 3 5 3 5 5 6 2 1 2 10 14 8 11 2 4 4 5 1 8 5 7 7 4 4 7 6 2 1 4 7 10 10 9 9 7 6 6 7 4 4 5 6 7 9 9 8 9 10 10 11 12 13 14 15 16 16 16 17 17 17 17 18
6 4 3 2 2 2 4 5 3 7 5 6 9 7 5 1 3 3 3 8 5 4 5 10 13 7 7 2 0 1 5 5 7 9 10 10 10 8 6 5 4 5 5 5 5 6 9 12 10 8 9 11 13 15 15 15 15 17 19 19 19 19 18
10 7 2 2 1 1 2 4 2 5 5 6 7 7 8 4 1 1 4 7 5 6 9 7 9 3 4 3 1 2 2 4 8 10 8 7 7 9 8 7 10 5 4 6 9 11 11 11 9 9 12 13 15 16 16 14 16 18 19 18 17 15 13
3 5 6 3 1 1 2 3 0 0 4 6 5 3 2 8 5 4 5 7 6 8 10 8 8 5 4 3 2 4 7 6 3 5 8 9 10 7 5 6 8 6 5 1 4 6 6 6 4 2 3 9 15 15 14 16 20 20 18 15 13 13 14
5 3 4 3 6 2 8 9 4 6 5 3 8 9 7 6 7 8 7 7 6 7 9 7 6 4 6 7 7 7 8 9 9 8 9 9 7 8 10 10 9 6 5 2 2 2 3 4 6 7 10 10 8 7 10 17 17 15 12 13 13 13 13
4 5 4 3 4 14 20 8 3 2 5 12 12 12 10 5 7 7 8 7 6 7 9 9 9 8 8 8 7 6 8 10 10 9 10 10 11 11 9 7 7 8 5 6 2 3 3 3 4 6 9 10 10 10 11 3 2 1 4 7 9 11 12
3 3 2 7 13 12 11 3 10 11 11 9 12 13 11 10 7 4 9 7 6 7 9 9 8 8 10 9 9 10 10 9 10 10 10 11 11 11 11 11 11 9 9 7 9 10 8 6 1 4 7 9 8 12 8 8 9 9 7 7 10 11 12
7 6 3 10 11 12 15 14 9 15 15 12 13 14 12 7 7 6 9 7 7 5 5 11 9 9 7 8 9 10 9 9 8 7 8 10 11 11 11 12 12 9 9 9 10 10 11 12 9 9 6 1 9 7 5 6 9 10 11 9 7 8 9
5 3 9 14 12 11 14 13 13 12 11 10 11 13 12 10 10 10 9 9 9 8 8 10 10 9 8 9 8 7 7 8 9 9 9 10 9 10 10 10 9 8 8 9 11 11 12 12 11 10 9 10 10 9 5 3 9 11 11 12 12 11 10
2 3 4 13 10 7 12 12 11 12 11 12 12 12 11 11 10 10 9 9 10 8 10 8 11 10 7 9 9 8 9 8 8 8 9 9 10 10 8 8 7 6 9 11 12 12 12 11 9 8 9 10 9 9 9 9 9 7 6 8 9 7 8
2 6 6 10 7 13 17 16 14 10 8 8 12 13 14 14 14 12 11 10 9 10 9 7 11 14 10 10 9 11 9 10 9 9 8 8 9 8 10 9 8 7 8 9 10 11 10 8 8 9 8 8 9 11 10 8 11 13 11 11 7 9 9
0 0 4 7 5 5 11 14 12 11 8 6 8 8 11 11 12 13 15 12 10 11 9 9 12 13 9 8 8 11 11 11 11 12 11 10 9 9 8 7 8 5 6 8 10 9 7 6 7 7 7 6 6 7 8 9 10 14 13 11 9 7 6
2 1 3 5 6 9 7 7 12 13 10 5 7 8 9 8 7 8 13 14 12 11 9 7 11 11 10 8 10 13 12 11 11 12 13 12 10 9 9 8 9 9 9 8 5 6 4 4 3 4 3 5 5 5 5 8 10 13 14 12 11 9 7
3 2 4 4 6 6 6 9 13 12 11 7 7 9 8 8 6 7 9 9 12 9 9 9 8 9 10 8 11 12 11 11 13 13 13 14 13 11 10 10 10 10 9 8 7 6 3 4 5 4 3 4 4 6 7 8 10 9 11 13 13 12 11
1 0 2 5 6 7 4 4 10 9 8 7 7 9 9 9 9 7 7 7 5 9 10 9 7 7 10 9 10 11 11 11 10 11 13 15 16 15 14 16 15 12 10 8 6 6 7 7 8 7 5 3 2 5 8 9 11 12 11 12 13 12 12
Wind_Direction
229 216 191 203 160 203 216 182 210 209 99 190 247 303 272 122 173 246 205 281 301 301 324 218 200 198 202 201 198 191 195 197 190 192 193 191 189 189 189 191 191 193 193 192 191 189 189 188 187 188 188 187 187 187 188 191 191 188 189 189 191 194 197
231 225 217 218 195 146 159 205 208 119 143 127 171 215 265 228 204 256 225 224 260 165 241 256 209 197 202 194 194 196 197 195 192 196 195 192 189 189 190 191 193 191 189 191 192 190 188 188 188 189 190 188 188 187 188 188 189 189 191 191 193 193 194
234 225 218 243 240 184 189 198 179 188 184 201 231 129 221 211 226 247 267 199 222 185 235 216 198 208 209 196 192 194 198 197 199 200 199 195 190 188 189 192 193 192 191 191 190 190 191 191 188 188 187 186 188 191 190 188 188 189 189 191 193 195 194
213 214 184 220 223 243 210 140 205 183 129 205 181 203 150 147 243 207 272 212 240 204 206 195 210 205 205 200 193 193 194 197 200 202 198 193 191 189 189 191 192 191 192 191 191 191 189 189 188 187 185 186 188 190 189 191 193 190 189 191 191 193 194
200 223 191 207 195 202 214 213 201 206 217 224 170 210 173 183 177 196 186 240 261 252 210 184 204 204 211 199 191 194 197 200 200 198 195 193 190 188 191 192 191 193 193 192 194 191 189 186 185 181 183 187 190 189 190 189 188 189 191 193 192 195 190
217 233 193 182 195 195 205 199 212 201 166 176 184 248 356 149 168 212 193 246 269 262 191 191 201 212 206 197 194 197 202 201 198 198 197 191 191 193 191 191 196 195 192 194 194 189 183 178 179 183 187 187 187 190 191 188 188 191 191 192 193 191 190
230 228 235 197 193 196 200 196 211 193 176 150 156 208 278 331 233 157 153 193 265 243 210 194 207 204 202 203 202 202 197 196 197 196 195 191 189 190 195 197 196 191 191 191 188 182 179 181 183 185 185 187 190 191 187 187 189 192 192 192 191 188 189
264 245 270 280 219 194 202 210 199 184 198 188 182 166 190 171 242 215 230 240 249 270 227 187 202 208 218 207 198 198 197 198 194 193 192 188 192 195 196 198 194 191 190 186 180 180 180 182 184 186 188 191 191 188 188 188 193 190 191 191 188 187 189
248 267 290 288 257 227 208 197 197 200 188 165 173 134 130 219 216 173 167 234 258 274 229 248 167 169 221 240 253 214 206 194 191 191 189 187 193 197 200 198 191 187 178 173 181 183 182 182 182 184 188 191 190 191 189 191 192 189 190 188 188 188 189
204 211 216 214 212 214 221 198 192 199 198 182 128 210 170 216 236 149 196 266 255 272 225 231 257 223 245 217 214 211 196 194 187 187 189 194 197 199 199 194 184 174 177 181 182 183 182 179 180 185 189 191 193 192 193 192 188 188 192 189 189 186 189
214 223 185 231 143 141 215 203 189 197 203 194 190 150 178 217 172 215 218 175 260 260 243 202 231 255 199 219 195 192 200 193 187 187 193 197 196 197 193 188 184 178 176 181 183 184 182 181 182 186 188 191 192 192 191 190 191 191 189 189 188 187 189
209 198 203 234 176 190 206 195 200 199 198 194 189 188 220 130 128 237 212 177 215 248 244 215 210 248 219 206 191 198 194 183 180 195 202 199 194 192 190 189 181 178 182 181 183 185 185 185 186 187 190 191 191 190 190 190 190 189 190 190 189 189 189
209 199 217 209 208 204 197 202 195 199 202 195 197 206 184 153 192 218 203 186 198 246 235 240 243 227 173 215 202 187 188 192 190 191 193 195 196 192 190 190 183 184 183 183 184 185 187 188 187 188 189 193 192 192 191 190 189 192 190 189 190 190 191
205 203 209 220 199 194 206 210 201 193 195 204 203 202 189 181 204 177 184 186 204 213 227 229 242 231 212 198 201 329 251 188 179 177 187 194 196 192 190 189 188 188 188 184 184 185 189 188 188 188 190 192 192 192 193 191 193 194 186 191 191 192 195
207 204 204 218 214 173 196 218 218 207 201 203 204 206 196 185 217 168 197 199 226 245 213 225 255 269 263 69 140 182 203 209 166 166 186 198 200 198 195 190 190 190 189 187 186 186 188 188 188 188 191 193 194 195 193 192 195 192 187 191 194 195 200
211 202 202 209 224 209 200 218 219 217 200 194 198 204 192 161 195 182 175 210 230 269 265 247 218 198 193 191 183 182 168 185 193 190 192 191 194 195 196 198 197 193 190 187 185 187 188 190 192 192 193 193 191 195 194 196 197 190 190 193 195 198 200
210 202 198 203 215 232 234 223 214 178 181 225 215 216 203 203 187 187 197 219 208 217 215 219 221 186 226 184 194 176 221 179 177 188 186 190 194 187 186 186 187 190 192 187 185 187 188 194 195 197 193 189 194 197 196 199 192 189 194 196 197 199 196
235 182 193 188 195 217 231 176 162 177 184 158 175 226 242 246 196 203 201 207 206 193 201 197 215 188 208 226 244 183 173 181 191 207 197 186 184 190 190 187 183 188 187 190 192 190 193 197 197 197 192 192 198 199 197 193 187 192 195 198 197 197 192
244 145 132 164 207 218 263 181 169 174 161 159 147 69 32 345 325 287 7 318 200 205 192 191 189 104 79 59 43 35 30 357 257 188 186 209 206 191 187 190 195 185 186 191 195 200 202 198 197 194 197 201 203 201 199 195 194 193 196 197 197 195 193
290 194 146 187 213 231 239 315 208 166 152 134 95 44 359 359 356 334 99 31 328 317 176 178 160 116 94 58 39 23 15 51 52 352 296 223 187 193 201 194 191 196 196 192 193 199 199 194 196 194 196 199 199 200 194 195 198 199 197 197 198 193 194
240 241 163 175 224 337 349 23 8 130 149 155 133 121 22 350 341 356 125 90 38 344 348 67 129 121 77 56 18 360 5 6 8 26 21 333 287 257 215 198 233 223 211 209 204 198 195 195 196 198 200 197 197 195 190 196 197 202 199 200 199 195 197
167 173 122 103 115 171 265 224 265 216 209 135 136 105 331 341 355 351 93 75 64 53 25 14 53 87 68 43 351 347 354 354 358 10 10 0 356 325 292 311 285 241 218 218 225 215 206 205 205 203 199 193 194 193 194 193 195 200 201 204 202 198 198
293 251 156 176 151 222 203 168 209 90 117 120 97 78 78 296 332 337 77 84 63 76 70 8 67 83 82 115 286 331 336 344 360 3 7 6 346 327 308 263 234 253 260 247 227 205 203 209 210 200 192 191 192 199 197 195 195 198 201 206 203 201 201
221 200 140 168 190 172 220 184 157 137 144 95 76 109 219 259 312 319 45 74 66 62 70 76 54 82 123 158 214 341 339 348 355 2 360 359 355 358 352 318 252 227 231 208 241 234 212 217 211 195 192 187 195 200 204 199 198 200 203 205 203 202 200
214 204 181 95 2 334 176 173 200 122 114 94 127 180 210 195 169 345 67 75 68 71 65 59 95 67 113 142 137 15 2 26 13 2 2 357 347 351 354 349 335 298 237 202 212 212 217 226 220 203 190 191 198 202 202 199 202 205 206 205 203 200 195
299 208 128 187 197 238 275 317 347 202 135 192 184 219 96 119 103 56 61 76 66 77 76 84 94 105 79 91 65 47 37 43 26 14 3 359 360 359 355 359 3 346 337 306 253 252 246 214 182 171 229 220 207 206 203 204 206 205 205 200 195 192 189
302 350 84 100 117 298 9 320 359 27 106 222 154 112 90 94 93 79 52 49 40 59 73 67 83 87 72 52 37 36 32 28 24 19 15 12 3 350 350 354 359 351 323 351 89 251 227 215 194 178 170 199 230 247 227 213 211 205 196 192 188 187 185
315 346 8 31 320 296 300 286 164 268 116 139 124 122 104 81 84 86 79 53 50 56 74 63 46 38 35 35 42 50 34 26 18 15 13 10 4 0 353 355 356 356 350 319 284 184 182 143 159 170 176 192 200 197 216 227 353 297 187 172 169 172 179
328 316 294 320 316 305 313 48 97 90 79 93 107 103 108 109 84 86 86 80 63 64 84 71 65 54 39 38 31 35 30 30 23 16 14 11 3 358 351 349 353 9 3 345 343 337 355 356 9 144 162 176 185 199 195 157 156 147 151 161 166 173 173
296 242 244 322 333 350 11 17 41 93 96 92 98 99 97 77 91 86 96 97 84 78 71 92 71 66 56 52 39 34 31 27 15 14 14 15 10 2 359 358 1 3 20 22 14 3 2 1 357 356 356 132 171 181 149 138 141 146 149 154 161 163 164
3 330 342 336 343 349 26 39 28 40 68 80 90 91 91 97 89 87 81 88 89 83 83 86 89 72 68 69 56 45 34 24 14 10 8 5 4 2 356 349 345 9 28 35 29 24 20 10 11 13 38 44 35 16 14 115 149 154 154 153 153 151 151
37 290 324 305 310 18 36 44 45 34 38 69 71 82 87 89 86 84 88 92 84 86 79 78 81 72 52 59 57 51 42 33 22 16 11 1 356 353 350 344 352 19 42 47 41 38 36 20 20 34 41 41 45 53 52 44 43 49 86 125 136 125 125
268 268 254 316 323 28 24 27 36 45 33 47 79 88 95 98 96 93 83 76 84 81 84 78 83 76 58 55 60 59 46 36 25 15 11 11 3 353 351 348 1 36 43 50 52 52 44 26 30 41 40 44 52 70 64 53 82 82 63 41 52 113 122
2 139 303 340 19 24 358 9 7 28 32 44 69 80 86 91 96 99 96 84 81 82 78 81 84 85 78 66 64 65 55 46 36 27 20 11 13 11 358 350 347 11 61 75 62 50 33 31 40 47 55 50 50 72 95 98 103 101 100 89 63 36 50
293 30 21 5 48 59 19 9 22 20 8 34 71 71 81 77 79 91 99 101 86 76 68 66 79 78 77 69 67 64 54 48 44 40 33 24 13 13 11 6 8 11 9 13 42 63 44 360 24 10 44 96 100 78 97 117 119 122 121 112 102 89 78
292 152 143 72 54 55 24 19 44 29 3 358 42 60 63 66 63 65 73 81 97 95 87 74 68 81 76 63 63 67 56 46 45 42 37 33 25 21 26 24 18 18 26 29 25 13 349 329 333 330 36 58 75 122 122 139 130 122 122 121 122 125 124
208 105 124 100 99 75 35 36 62 52 15 353 21 42 47 56 49 42 66 67 65 91 92 81 66 69 80 70 69 69 67 55 49 54 54 46 36 31 28 27 24 21 20 17 16 22 22 19 15 25 47 27 17 134 132 135 129 123 121 115 118 128 138